EET,Max TemperatureF,Mean TemperatureF,Min TemperatureF,Max Dew PointF,MeanDew PointF,Min DewpointF,Max Humidity, Mean Humidity, Min Humidity, Max Sea Level PressureIn, Mean Sea Level PressureIn, Min Sea Level PressureIn, Max VisibilityMiles, Mean VisibilityMiles, Min VisibilityMiles, Max Wind SpeedMPH, Mean Wind SpeedMPH, Max Gust SpeedMPH,PrecipitationIn, CloudCover, Events, WindDirDegrees
2013-1-1,49,45,39,37,37,34,87,69,52,30.22,30.18,30.15,6,6,6,13,9,,0.00,6,,31
2013-1-2,51,44,38,43,40,36,100,80,59,30.36,30.25,30.18,6,4,3,8,5,,0.00,3,,301
2013-1-3,50,45,40,45,42,39,100,84,71,30.45,30.39,30.36,6,4,1,10,3,,0.00,3,Fog,236
2013-1-4,49,41,33,46,39,34,100,84,59,30.36,30.17,30.04,6,4,0,13,7,,0.03,4,Fog-Rain,284
2013-1-5,48,44,39,39,36,34,87,72,52,30.04,29.91,29.80,6,6,6,8,4,,0.00,5,Rain,258
2013-1-6,46,42,37,39,33,28,93,71,48,29.91,29.85,29.77,6,6,6,23,9,33,0.00,6,Rain,349
2013-1-7,37,34,32,34,31,27,100,89,67,30.04,29.90,29.83,6,4,0,25,9,23,0.39,6,Snow,338
2013-1-8,29,28,26,28,26,19,100,90,64,30.21,30.14,30.04,6,3,0,25,20,,0.08,6,Snow,328
2013-1-9,34,29,24,28,21,18,100,71,42,30.26,30.21,30.15,6,4,0,21,11,,0.00,6,Snow,309
2013-1-10,41,30,19,28,23,16,86,65,48,30.25,30.16,30.04,6,5,2,23,9,28,0.00,3,,207
2013-1-11,49,45,41,43,35,28,82,67,49,30.04,29.94,29.89,6,6,4,24,18,33,0.08,6,Rain,197
2013-1-12,52,46,39,48,43,36,100,86,67,30.04,29.90,29.83,6,5,4,26,10,,0.43,6,Rain,154
2013-1-13,43,40,37,36,34,32,93,78,61,30.33,30.24,30.06,6,5,4,18,11,,0.00,5,Rain,17
2013-1-14,48,43,38,37,36,32,87,73,43,30.39,30.34,30.30,12,6,6,8,4,,0.00,2,,109
2013-1-15,56,46,37,41,38,34,93,69,38,30.35,30.26,30.15,6,3,2,9,4,,0.00,,,102
2013-1-16,63,54,46,46,40,34,100,63,33,30.15,29.94,29.71,6,6,6,25,11,25,0.04,4,Rain,149
2013-1-17,55,50,46,48,43,39,94,74,61,29.83,29.73,29.62,12,6,5,26,18,,0.08,5,Rain,196
2013-1-18,59,54,49,46,42,39,87,64,41,29.80,29.65,29.53,6,6,4,17,7,,0.00,6,Rain,160
2013-1-19,54,50,46,43,41,39,87,75,62,29.80,29.63,29.53,6,6,2,25,17,26,0.63,5,Rain,197
2013-1-20,56,52,47,46,43,39,77,72,62,29.95,29.88,29.80,6,6,6,17,13,,0.00,2,,217
2013-1-21,63,56,49,48,43,39,88,62,37,29.95,29.87,29.77,6,6,6,16,9,,0.00,1,Rain,222
2013-1-22,58,54,50,52,45,41,94,69,51,29.80,29.72,29.68,6,6,5,18,7,,0.00,3,Rain,206
2013-1-23,55,52,50,48,45,41,94,76,62,29.98,29.84,29.77,6,6,6,20,10,,0.04,4,Rain,213
2013-1-24,60,54,47,45,42,39,87,67,47,29.98,29.86,29.62,6,6,6,10,6,,0.02,4,Rain,144
2013-1-25,55,50,44,46,44,41,100,75,51,29.77,29.66,29.56,6,6,4,21,11,,0.12,5,Rain,214
2013-1-26,48,44,41,46,43,39,100,92,81,29.77,29.71,29.65,6,5,4,25,16,28,0.16,6,Rain,15
2013-1-27,39,36,33,43,35,32,100,90,79,30.01,29.89,29.74,6,4,1,29,22,40,0.04,6,Rain-Snow,357
2013-1-28,42,38,34,37,33,30,93,80,64,30.06,30.01,29.95,6,5,2,14,8,,0.02,6,Rain,14
2013-1-29,40,38,35,36,32,27,93,79,66,30.15,30.12,30.06,6,4,2,15,11,,0.00,6,,348
2013-1-30,42,36,30,32,29,26,87,70,49,30.12,30.05,30.01,6,6,4,9,6,,0.00,4,,319
2013-1-31,45,38,30,43,35,28,100,81,61,30.04,29.93,29.86,6,5,2,23,6,29,0.20,5,Rain,267